TimeCDT,TemperatureF,Dew PointF,Humidity,Sea Level PressureIn,VisibilityMPH,Wind Direction,Wind SpeedMPH,Gust SpeedMPH,PrecipitationIn,Events,Conditions,WindDirDegrees,DateUTC
12:14 AM,23.0,17.6,80,30.30,10.0,ESE,5.8,-,N/A,,Clear,110,2013-03-28 05:14:00
12:33 AM,23.0,17.6,80,30.29,10.0,ESE,5.8,-,N/A,,Clear,110,2013-03-28 05:33:00
12:53 AM,23.0,17.6,80,30.30,10.0,ESE,6.9,-,N/A,,Clear,110,2013-03-28 05:53:00
1:14 AM,23.0,17.6,80,30.29,10.0,ESE,6.9,-,N/A,,Clear,120,2013-03-28 06:14:00
1:33 AM,23.0,17.6,80,30.29,10.0,ESE,6.9,-,N/A,,Clear,120,2013-03-28 06:33:00
1:53 AM,23.0,17.6,80,30.29,10.0,ESE,6.9,-,N/A,,Clear,120,2013-03-28 06:53:00
2:13 AM,21.2,15.8,80,30.29,10.0,ESE,8.1,-,N/A,,Clear,120,2013-03-28 07:13:00
2:33 AM,23.0,17.6,80,30.29,10.0,ESE,6.9,-,N/A,,Clear,120,2013-03-28 07:33:00
2:53 AM,21.2,15.8,80,30.29,10.0,ESE,8.1,-,N/A,,Clear,120,2013-03-28 07:53:00
3:13 AM,19.4,15.8,86,30.29,10.0,ESE,6.9,-,N/A,,Scattered Clouds,110,2013-03-28 08:13:00
3:33 AM,19.4,15.8,86,30.28,10.0,ESE,6.9,-,N/A,,Mostly Cloudy,120,2013-03-28 08:33:00
3:53 AM,21.2,17.6,86,30.28,10.0,ESE,6.9,-,N/A,,Mostly Cloudy,120,2013-03-28 08:53:00
4:13 AM,21.2,17.6,86,30.28,10.0,ESE,5.8,-,N/A,,Overcast,120,2013-03-28 09:13:00
4:33 AM,21.2,17.6,86,30.27,10.0,East,5.8,-,N/A,,Overcast,100,2013-03-28 09:33:00
4:53 AM,21.2,17.6,86,30.27,10.0,ESE,4.6,-,N/A,,Overcast,110,2013-03-28 09:53:00
5:13 AM,21.2,17.6,86,30.27,10.0,East,4.6,-,N/A,,Overcast,90,2013-03-28 10:13:00
5:33 AM,21.2,17.6,86,30.27,10.0,East,4.6,-,N/A,,Overcast,90,2013-03-28 10:33:00
5:53 AM,21.2,17.6,86,30.27,10.0,East,5.8,-,N/A,,Overcast,100,2013-03-28 10:53:00
6:13 AM,21.2,19.4,93,30.27,10.0,ESE,4.6,-,N/A,,Overcast,120,2013-03-28 11:13:00
6:33 AM,21.2,19.4,93,30.27,10.0,ESE,5.8,-,N/A,,Overcast,110,2013-03-28 11:33:00
6:54 AM,23.0,19.4,86,30.27,10.0,ESE,6.9,-,N/A,,Overcast,110,2013-03-28 11:54:00
7:13 AM,23.0,19.4,86,30.27,10.0,ESE,5.8,-,N/A,,Overcast,110,2013-03-28 12:13:00
7:33 AM,24.8,21.2,86,30.27,10.0,ESE,8.1,-,N/A,,Overcast,110,2013-03-28 12:33:00
7:54 AM,24.8,21.2,86,30.27,10.0,East,6.9,-,N/A,,Overcast,100,2013-03-28 12:54:00
8:13 AM,24.8,21.2,86,30.27,10.0,East,6.9,-,N/A,,Overcast,100,2013-03-28 13:13:00
8:33 AM,24.8,21.2,86,30.27,10.0,ESE,6.9,-,N/A,,Overcast,110,2013-03-28 13:33:00
8:54 AM,26.6,21.2,80,30.27,10.0,ESE,9.2,-,N/A,,Overcast,110,2013-03-28 13:54:00
9:13 AM,26.6,23.0,86,30.28,10.0,ESE,6.9,-,N/A,,Overcast,110,2013-03-28 14:13:00
9:33 AM,28.4,23.0,80,30.27,10.0,ESE,10.4,-,N/A,,Mostly Cloudy,120,2013-03-28 14:33:00
9:54 AM,30.2,24.8,80,30.28,10.0,ESE,10.4,-,N/A,,Scattered Clouds,120,2013-03-28 14:54:00
10:13 AM,30.2,24.8,80,30.28,10.0,ESE,12.7,-,N/A,,Scattered Clouds,120,2013-03-28 15:13:00
10:33 AM,32.0,24.8,75,30.28,10.0,ESE,12.7,-,N/A,,Scattered Clouds,120,2013-03-28 15:33:00
10:53 AM,32.0,24.8,75,30.28,10.0,ESE,12.7,-,N/A,,Scattered Clouds,120,2013-03-28 15:53:00
11:13 AM,33.8,24.8,70,30.28,10.0,ESE,13.8,-,N/A,,Clear,120,2013-03-28 16:13:00
11:33 AM,33.8,24.8,70,30.28,10.0,ESE,12.7,-,N/A,,Mostly Cloudy,120,2013-03-28 16:33:00
11:53 AM,33.8,24.8,70,30.27,10.0,ESE,12.7,-,N/A,,Mostly Cloudy,120,2013-03-28 16:53:00
12:13 PM,35.6,24.8,65,30.27,10.0,ESE,13.8,-,N/A,,Overcast,120,2013-03-28 17:13:00
12:33 PM,35.6,24.8,65,30.27,10.0,ESE,11.5,-,N/A,,Scattered Clouds,120,2013-03-28 17:33:00
12:53 PM,37.4,24.8,60,30.27,10.0,ESE,11.5,-,N/A,,Clear,110,2013-03-28 17:53:00
1:13 PM,35.6,26.6,70,30.26,10.0,ESE,10.4,-,N/A,,Clear,110,2013-03-28 18:13:00
1:33 PM,35.6,24.8,65,30.26,10.0,ESE,12.7,-,N/A,,Scattered Clouds,110,2013-03-28 18:33:00
1:53 PM,35.6,26.6,70,30.26,10.0,ESE,10.4,-,N/A,,Mostly Cloudy,120,2013-03-28 18:53:00
2:13 PM,35.6,26.6,70,30.26,10.0,ESE,11.5,-,N/A,,Mostly Cloudy,110,2013-03-28 19:13:00
2:34 PM,37.4,26.6,65,30.25,10.0,East,13.8,-,N/A,,Scattered Clouds,100,2013-03-28 19:34:00
2:53 PM,35.6,26.6,70,30.25,10.0,East,13.8,-,N/A,,Scattered Clouds,100,2013-03-28 19:53:00
3:13 PM,37.4,28.4,70,30.25,10.0,ESE,9.2,-,N/A,,Mostly Cloudy,110,2013-03-28 20:13:00
3:34 PM,37.4,26.6,65,30.25,10.0,ESE,10.4,-,N/A,,Overcast,120,2013-03-28 20:34:00
3:53 PM,37.4,26.6,65,30.24,10.0,ESE,11.5,-,N/A,,Mostly Cloudy,120,2013-03-28 20:53:00
4:13 PM,37.4,28.4,70,30.23,10.0,ESE,11.5,-,N/A,,Scattered Clouds,110,2013-03-28 21:13:00
4:34 PM,37.4,28.4,70,30.23,10.0,East,13.8,-,N/A,,Mostly Cloudy,100,2013-03-28 21:34:00
4:53 PM,37.4,28.4,70,30.23,10.0,ESE,11.5,-,N/A,,Scattered Clouds,110,2013-03-28 21:53:00
5:13 PM,37.4,28.4,70,30.23,10.0,ESE,10.4,-,N/A,,Clear,110,2013-03-28 22:13:00
5:34 PM,37.4,28.4,70,30.23,10.0,East,11.5,-,N/A,,Clear,100,2013-03-28 22:34:00
5:53 PM,35.6,28.4,75,30.23,10.0,East,11.5,-,N/A,,Scattered Clouds,100,2013-03-28 22:53:00
6:13 PM,35.6,28.4,75,30.23,10.0,East,10.4,-,N/A,,Overcast,100,2013-03-28 23:13:00
6:34 PM,35.6,28.4,75,30.23,10.0,East,10.4,-,N/A,,Overcast,100,2013-03-28 23:34:00
6:53 PM,35.6,28.4,75,30.23,10.0,East,11.5,-,N/A,,Overcast,100,2013-03-28 23:53:00
7:13 PM,35.6,28.4,75,30.23,10.0,East,10.4,-,N/A,,Overcast,100,2013-03-29 00:13:00
7:34 PM,33.8,28.4,81,30.23,10.0,East,10.4,-,N/A,,Scattered Clouds,100,2013-03-29 00:34:00
7:53 PM,33.8,28.4,81,30.23,10.0,East,9.2,-,N/A,,Scattered Clouds,100,2013-03-29 00:53:00
8:13 PM,33.8,28.4,81,30.23,10.0,ESE,10.4,-,N/A,,Scattered Clouds,110,2013-03-29 01:13:00
8:34 PM,33.8,28.4,81,30.23,10.0,East,8.1,-,N/A,,Scattered Clouds,100,2013-03-29 01:34:00
8:53 PM,33.8,26.6,75,30.23,10.0,ESE,10.4,-,N/A,,Scattered Clouds,110,2013-03-29 01:53:00
9:13 PM,33.8,26.6,75,30.23,10.0,ESE,9.2,-,N/A,,Scattered Clouds,110,2013-03-29 02:13:00
9:33 PM,32.0,26.6,80,30.23,10.0,ESE,8.1,-,N/A,,Clear,110,2013-03-29 02:33:00
9:53 PM,32.0,26.6,80,30.24,10.0,ESE,9.2,-,N/A,,Clear,110,2013-03-29 02:53:00
10:13 PM,32.0,26.6,80,30.24,10.0,ESE,8.1,-,N/A,,Clear,110,2013-03-29 03:13:00
10:33 PM,30.2,26.6,86,30.24,10.0,ESE,8.1,-,N/A,,Clear,110,2013-03-29 03:33:00
10:53 PM,30.2,26.6,86,30.23,10.0,ESE,8.1,-,N/A,,Clear,110,2013-03-29 03:53:00
11:13 PM,30.2,26.6,86,30.23,10.0,ESE,8.1,-,N/A,,Clear,110,2013-03-29 04:13:00
11:33 PM,30.2,24.8,80,30.23,10.0,East,9.2,-,N/A,,Clear,100,2013-03-29 04:33:00
11:53 PM,30.2,26.6,86,30.23,10.0,ESE,8.1,-,N/A,,Clear,110,2013-03-29 04:53:00